Greenwich, CT

1:09 PM EST on January 21, 2017 (GMT -0500)
Westchester County

Weather History for KHPN - August, 2013

Change the Weather History Date:

Saturday, August 24, 2013

  Actual Average Record
Temperature  
Mean Temperature 66 °F -  
Max Temperature 77 °F 77 °F 91 °F (1998)
Min Temperature 57 °F 61 °F 51 °F (1987)
Cooling Degree Days 1    
Growing Degree Days 16 (Base 50)    
Moisture  
Dew Point 52 °F    
Average Humidity 61    
Maximum Humidity 86    
Minimum Humidity 43    
Precipitation  
Precipitation 0.00 in - - ()
Sea Level Pressure  
Sea Level Pressure 30.26 in    
Wind  
Wind Speed 5 mph (NNE)    
Max Wind Speed 10 mph    
Max Gust Speed -    
Visibility 10 miles    
Events      
Averages and records for this station are not official NWS values.
T = Trace of Precipitation, MM = Missing Value Source: NWS Daily Summary

Daily Weather History Graph

Daily Weather History Graph

Search for Another Location

Airport or City:

Trip Planner

Search our weather history database for the weather conditions in past years. The results will help you decide how hot, cold, wet, or windy it might be!

Date:

Astronomy

Aug. 24, 2013 Rise Set
Actual Time 6:13 AM EDT 7:39 PM EDT
Civil Twilight 5:44 AM EDT 8:08 PM EDT
Nautical Twilight 5:10 AM EDT 8:43 PM EDT
Astronomical Twilight 4:33 AM EDT 9:19 PM EDT
Moon 9:29 PM EDT (8/24) 10:13 AM EDT (8/24)
Length of Visible Light 14h 23m
Length of Day
13h 26m
Waning Gibbous, 84% of the Moon is Illuminated
Aug 24
Waning Gibbous
Aug 28
Last Quarter
Sep 5
New
Sep 12
First Quarter
Sep 19
Full

Hourly Weather History & Observations

Time (EDT) Temp. Dew Point Humidity Pressure Visibility Wind Dir Wind Speed Gust Speed Precip Events Conditions
12:56 AM 64.9 °F 51.1 °F 61% 30.13 in 10.0 mi North 4.6 mph - N/A   Scattered Clouds
1:56 AM 63.0 °F 50.0 °F 63% 30.14 in 10.0 mi Variable 5.8 mph - N/A   Clear
2:56 AM 62.1 °F 48.9 °F 62% 30.16 in 10.0 mi North 5.8 mph - N/A   Scattered Clouds
3:56 AM 61.0 °F 48.0 °F 62% 30.18 in 10.0 mi North 5.8 mph - N/A   Clear
4:56 AM 60.1 °F 48.0 °F 64% 30.19 in 10.0 mi NNE 8.1 mph - N/A   Clear
5:56 AM 59.0 °F 48.0 °F 67% 30.21 in 10.0 mi North 6.9 mph - N/A   Clear
6:46 AM 57.2 °F 48.2 °F 72% 30.24 in 10.0 mi North 6.9 mph - N/A   Partly Cloudy
6:56 AM 59.0 °F 48.0 °F 67% 30.24 in 10.0 mi North 6.9 mph - N/A   Clear
7:56 AM 62.1 °F 48.9 °F 62% 30.26 in 10.0 mi North 9.2 mph - N/A   Clear
8:56 AM 66.0 °F 51.1 °F 59% 30.27 in 10.0 mi NNE 8.1 mph - N/A   Clear
9:56 AM 69.1 °F 51.1 °F 53% 30.29 in 10.0 mi NNE 10.4 mph - N/A   Clear
10:56 AM 71.1 °F 51.1 °F 49% 30.29 in 10.0 mi Variable 4.6 mph - N/A   Clear
11:56 AM 73.0 °F 52.0 °F 48% 30.29 in 10.0 mi Calm Calm - N/A   Partly Cloudy
12:56 PM 75.0 °F 52.0 °F 44% 30.28 in 10.0 mi Variable 4.6 mph - N/A   Clear
1:56 PM 73.0 °F 53.1 °F 49% 30.29 in 10.0 mi South 8.1 mph - N/A   Partly Cloudy
2:56 PM 73.9 °F 53.1 °F 48% 30.29 in 10.0 mi South 5.8 mph - N/A   Partly Cloudy
3:56 PM 75.9 °F 52.0 °F 43% 30.28 in 10.0 mi SE 3.5 mph - N/A   Clear
4:56 PM 75.0 °F 53.1 °F 46% 30.28 in 10.0 mi ESE 6.9 mph - N/A   Partly Cloudy
5:56 PM 73.9 °F 53.1 °F 48% 30.29 in 10.0 mi SSE 6.9 mph - N/A   Partly Cloudy
6:56 PM 70.0 °F 55.0 °F 59% 30.29 in 10.0 mi SSE 3.5 mph - N/A   Clear
7:56 PM 64.9 °F 55.9 °F 73% 30.31 in 10.0 mi Calm Calm - N/A   Clear
8:56 PM 64.0 °F 57.0 °F 78% 30.33 in 10.0 mi Calm Calm - N/A   Clear
9:56 PM 62.1 °F 55.9 °F 80% 30.33 in 10.0 mi Calm Calm - N/A   Clear
10:56 PM 62.1 °F 57.0 °F 84% 30.34 in 10.0 mi Calm Calm - N/A   Clear
11:56 PM 60.1 °F 55.9 °F 86% 30.35 in 10.0 mi NW 3.5 mph - N/A   Clear